Regional Weather Roundup
Issued by NWS Nashville, TN

Home | Current Version | Previous Version | Text Only | Print | Product List | Glossary On
Versions: 1 2 3 4 5 6 7 8 9 10 11 12 13 14 15 16 17 18 19 20 21 22 23 24 25 26 27 28
000
ASUS44 KOHX 301510
RWROHX
MIDDLE TENNESSEE HOURLY WEATHER ROUNDUP
NATIONAL WEATHER SERVICE NASHVILLE TN
1000 AM CDT SAT JUL 30 2016

NOTE: "FAIR" INDICATES FEW OR NO CLOUDS BELOW 12,000 FEET WITH
NO SIGNIFICANT WEATHER AND/OR OBSTRUCTIONS TO VISIBILITY.

* THESE REPORTS ARE NOT UNDER NWS QUALITY CONTROL AND MAY NOT
  REPORT WEATHER SUCH AS PRECIPITATION AND FOG.


TNZ005>011-023>034-057-059-062>066-078-080-301600
...NORTHERN MIDDLE TENNESSEE...

CITY           SKY/WX    TMP DP  RH WIND       PRES   REMARKS
CLARKSVILLE    PTSUNNY   77  71  82 SW6       30.01S
CROSSVILLE     MOSUNNY   77  68  73 W9        30.09S
NASHVILLE      PTSUNNY   80  70  71 VRB5      30.03R
SMYRNA         PTSUNNY   77  73  87 S6        30.04R FOG
SPARTA         CLOUDY    77  73  88 CALM      30.04S
$$
TNZ056-058-060-061-075>077-079-093>097-301600
...SOUTHERN MIDDLE TENNESSEE...

CITY           SKY/WX    TMP DP  RH WIND       PRES   REMARKS
COLUMBIA       MOSUNNY  N/A N/A N/A CALM      30.02S
MCMINNVILLE    SUNNY     81  75  83 W6        30.05S
SHELBYVILLE    MOSUNNY   82  73  74 SW3       30.05S
TULLAHOMA      SUNNY     81  68  65 CALM      30.06F
WINCHESTER     SUNNY     81  70  69 CALM      30.05F
$$


...KEY TO REMARKS...
VSB - VISIBILITY IN MILES
WCI - WIND CHILL INDEX
HX  - HEAT INDEX





USA.gov is the U.S. government's official web portal to all federal, state and local government web resources and services.